ATLAS 5 CENTAUR DEB, 44665

Orbit data source: Space-Track

ATLAS 5 CENTAUR DEB, 44665 is space debris in HEO originally from a launch on Wed, 17 Oct 2018 UTC launched from the Air Force Eastern Test Range (AFETR). Debris objects in space refer to the collection of defunct objects orbiting the Earth. Examples of debris include non-operational satellites, rocket bodies, and fragments generated from explosions, collisions, or faulty payload assembly.

Loading next visibility...
Identifier
44665, 2018-079AB
Orbit
HEO
Country
Flag of USUS
Related business
Flag of USUnited Launch Alliance/Lockheed Martin (US)
Manufacturer
ULA Decatur
Mission
Spacecraft
Bus & Motor
Unknown
Mass
Unknown
Launch date (UTC)
2018-10-17 (8 years ago)
Launch vehicle
Unknown
Launch site
Air Force Eastern Test Range (AFETR)
Object type
Payload
Rocket body
Debris
Shape & HBR
Unknown shape, 1.1 m
Radar Cross Section
Medium (>0.1 m² and <1 m²)

Expand to show TLE details & history
Last TLE update: 3 weeks ago

TLE from 3 weeks ago
0 ATLAS 5 CENTAUR DEB
1 44665U 18079AB  26215.22730647 -.00000127  00000-0  00000+0 0  9997
2 44665  12.7878  70.0214 4626617 242.6485  63.2459  1.68617308 44161
Epoch: 2026-08-03T05:27Z
TLE epoch observation values (Epoch: 2026-08-03T05:27:19.279Z)
Latitude
-0°
Longitude
36.47844°
Altitude
23,386.648 km
Speed
3.663 km/s
True Right ascension
04h 40m 29s
True Declination
0° 00' 00"
Sunlit
Object was in daylight at epoch
Visualization orbit readout
Latitude
Unknown
Longitude
Unknown
Altitude
Unknown
Speed
Unknown
Apparent Right ascension
Unknown
Apparent Declination
Unknown
Sunlit
N/A
Visualization observer readout
Local Sidereal Time
19:31:24
Azimuth
Unknown
Elevation
Unknown
Doppler factor
Unknown
Orbital elements
Apogee altitude
37,237.261 km
Perigee altitude
9,644.86 km
Semi-major axis
29,819.197 km
Eccentricity
0.46266
Inclination
12.7878°
RAAN
70.0214°
Arg. of periapsis
242.6485°
True anomaly
117.34089°
Mean anomaly
63.2459°
Eccentric anomaly
89.75422°
Mean motion
0.4215 °/min
Orbital period
854.09 mins
BSTAR
0
Loading maneuver chart data...
Computing Atmospheric mass density...

Documentation

Showing up to 5 results
|